Regional Weather Roundup
Issued by NWS

Home | Current Version | Previous Version | Graphics & Text | Print | Product List | Glossary On
Versions: 1 2 3 4 5 6 7 8 9 10 11 12 13 14 15 16 17 18 19 20 21 22 23 24 25 26 27 28 29 30 31 32 33 34 35 36 37 38 39 40 41 42 43 44 45 46 47 48 49 50
000
ASUS45 KSLC 112210
RWRUT

UTAH REGIONAL WEATHER ROUNDUP
NATIONAL WEATHER SERVICE SALT LAKE CITY UT
400 PM MDT FRI JUL 11 2014

UTZ001>011-023>025-112300-

NORTHERN UTAH

CITY           SKY/WX    TMP DP  RH WIND       PRES   REMARKS
HILL AFB       PTSUNNY   79  59  50 E17G23    30.11F
LOGAN          MOSUNNY   76  60  57 SE10      30.10F
OGDEN          PTSUNNY   79  55  43 NW5       30.08F
PROVO AIRPORT  PTSUNNY   81  55  41 VRB6      30.11F
SALT LAKE CITY PTSUNNY   84  50  30 W3        30.06F
VERNAL         MOSUNNY   87  51  28 VRB5      30.07F
WENDOVER       MOSUNNY   88  48  25 E14       30.04S
HEBER CITY     PTSUNNY   73  54  49 N13G22    30.18R THUNDER
WEST JORDAN    SUNNY     84  57  39 SE5       30.11F

$$

UTZ012>022-026-027-112300-

SOUTHERN UTAH

CITY           SKY/WX    TMP DP  RH WIND       PRES   REMARKS
BRYCE CANYON   PTSUNNY   74  48  39 E8        30.30F
CEDAR CITY     MOSUNNY   85  47  26 SW18G24   30.16F
MILFORD        MOSUNNY   87  50  27 S10       30.09F
MOAB/CYNLANDS  SUNNY     92  47  21 W9        30.00F
PRICE          MOSUNNY   84  46  26 NW15G25   30.14S
ST GEORGE      NOT AVBL

$$

REGIONAL REPORTS     COLORADO/ARIZONA

CITY           SKY/WX    TMP DP  RH WIND       PRES   REMARKS
CRAIG, CO      PTSUNNY   75  61  61 VRB7      30.17F
GRAND JUNCTION MOSUNNY   92  50  23 W12G21    30.03F
RIFLE          MOSUNNY   83  61  47 E3        30.08F
MONTROSE       LGT RAIN  88  48  25 SE9       30.13F
CORTEZ         SUNNY     90  45  21 W8        30.14F
PAGE, AZ       MOSUNNY   95  48  20 NW12      30.04F HX  91
GRAND CANYON   SUNNY     82  44  26 W8G18     30.25F
KINGMAN        MOSUNNY   93  43  17 W8        30.02F
FLAGSTAFF      MOSUNNY   81  45  28 SW13      30.27F

$$

REGIONAL REPORTS    NEVADA/IDAHO/WYOMING

CITY           SKY/WX    TMP DP  RH WIND       PRES   REMARKS
LAS VEGAS, NV  MOSUNNY  101  42  13 SE15      29.87F HX  96
ELY            LGT RAIN  80  49  33 S16       30.19S
ELKO           PTSUNNY   88  47  24 SE17G30   30.06S
POCATELLO, ID  MOSUNNY   88  48  25 E16       30.03F
BURLEY         MOSUNNY   90  48  23 W5        29.98F
EVANSTON, WY   LGT RAIN  64  56  75 SE10      30.31R
ROCK SPRINGS   PTSUNNY   76  49  38 W5        30.23S

$$


USA.gov is the U.S. government's official web portal to all federal, state and local government web resources and services.